Location: Zagreb
(45.8000°N, 16.0000°E)
Time: 21:07:01
(UTC+01:00)

deb Explorer IX - Pass Details

Date: 09 October 2020
Orbit: 537 x 1106 km, 38.8° (Epoch: 30 October)

Event Time Altitude Azimuth Distance (km) Brightness Sun altitude
Rises 16:23:03 0° 259° (W) 3,611 ? 18.4°
Reaches altitude 10° 16:25:58 10° 253° (WSW) 2,573 ? 17.9°
Maximum altitude 16:31:38 41° 185° (S) 1,149 ? 17.1°
Drops below altitude 10° 16:36:28 10° 116° (ESE) 2,198 ? 16.3°
Sets 16:38:48 0° 109° (ESE) 3,031 ? 16.0°
